Regional Weather Roundup
Issued by NWS

Home | Current Version | Previous Version | Graphics & Text | Print | Product List | Glossary Off
Versions: 1 2 3 4 5 6 7 8 9 10 11 12 13 14 15 16 17 18 19 20 21 22 23 24 25 26 27 28 29 30 31 32 33 34 35 36 37 38 39 40 41 42 43 44 45 46 47 48 49 50

000
ASUS43 KOAX 252010
RWRNE

WEATHER ROUNDUP FOR NEBRASKA
NATIONAL WEATHER SERVICE OMAHA NE
300 PM CDT SUN SEP 25 2016

NOTES: SATELLITE DATA IS BEING USED TO AUGMENT CLOUD COVER ABOVE
       12000 FEET.
       "FAIR" INDICATES FEW OR NO CLOUDS BELOW 12,000 FEET WITH NO
       SIGNIFICANT WEATHER AND/OR OBSTRUCTIONS TO VISIBILITY.

  * THESE STATIONS DO NOT REPORT WEATHER SUCH AS RAIN...SNOW OR FOG.

NEZ001>004-019>022-054>056-252100-
NEBRASKA PANHANDLE

CITY           SKY/WX    TMP DP  RH WIND       PRES   REMARKS
SCOTTSBLUFF    CLOUDY    66  36  32 NW13G23   30.36F
ALLIANCE       SUNNY     64  34  32 NW22G39   30.34F
CHADRON        SUNNY     64  25  22 NW21G35   30.34F
KIMBALL        SUNNY     62  36  36 NW12G18   30.39F
SIDNEY         LGT RAIN  65  35  33 NW20G31   30.38F
$$

NEZ057>060-069>072-079>082-252100-
SOUTHWEST NEBRASKA

CITY           SKY/WX    TMP DP  RH WIND       PRES   REMARKS
NORTH PLATTE   SUNNY     73  29  19 NW23G32   30.27F
IMPERIAL       MOSUNNY   69  32  25 N29G37    30.31F
LEXINGTON      SUNNY     70  32  24 NW17G29   30.25F
MCCOOK         SUNNY     74  32  21 N21G28    30.26F
OGALLALA       SUNNY     71  30  22 NW23G35   30.31F
$$

NEZ005>010-023>029-035>040-094-252100-
NORTH CENTRAL NEBRASKA

CITY           SKY/WX    TMP DP  RH WIND       PRES   REMARKS
VALENTINE      SUNNY     66  27  23 NW28G35   30.24F
AINSWORTH      SUNNY     65  32  29 NW25G33   30.24F
BROKEN BOW     SUNNY     69  22  16 NW21G31   30.24F
O`NEILL        SUNNY     69  29  22 NW29G35   30.19S
ORD            SUNNY     69  31  24 NW21G30   30.20F
THEDFORD       SUNNY     68  26  20 NW25G36   30.26F
$$

NEZ041-046>049-061>064-073>077-083>087-252100-
SOUTH CENTRAL NEBRASKA

CITY           SKY/WX    TMP DP  RH WIND       PRES   REMARKS
GRAND ISLAND   SUNNY     71  36  27 NW25      30.20F
AURORA         SUNNY     71  40  32 W13G25    30.19F
HASTINGS       MOSUNNY   71  39  31 N22G30    30.22F
HEBRON         MOSUNNY   73  44  35 NW17G28   30.18F
HOLDREGE       SUNNY     70  28  20 NW16G24   30.23F
KEARNEY *      SUNNY     72  32  23 NW17G30   30.22F
YORK           MOSUNNY   72  43  35 NW14G26   30.17F
$$

NEZ011>018-030>034-042>045-252100-
NORTHEAST NEBRASKA

CITY           SKY/WX    TMP DP  RH WIND       PRES   REMARKS
NORFOLK        PTSUNNY   67  42  40 NW18G30   30.14F
ALBION         SUNNY     69  37  31 NW17G30   30.17F
BLAIR          CLOUDY    68  48  49 NW16G26   30.12F
FREMONT        CLOUDY    69  49  48 NW20      30.14S
TEKAMAH        CLOUDY    67  46  47 NW20G28   30.11F
WAYNE          CLOUDY    65  46  49 NW18G31   30.14S
$$

NEZ050>053-065>068-078-088>093-252100-
SOUTHEAST NEBRASKA

CITY           SKY/WX    TMP DP  RH WIND       PRES   REMARKS
LINCOLN        SUNNY     74  47  38 NW20G28   30.14F
OMAHA EPPLEY   PTSUNNY   69  48  47 NW17G29   30.11S
BEATRICE       MOSUNNY   72  49  44 NW18G25   30.15F
FALLS CITY     PTSUNNY   68  52  56 NW12      30.12F
NEBRASKA CITY  MOSUNNY   71  37  28 NW20G26   30.12F
PLATTSMOUTH    MOSUNNY   71  42  34 NW15G26   30.12S
$$

NEZ044-045-051>053-067-252100-
OMAHA AREA

CITY           SKY/WX    TMP DP  RH WIND       PRES   REMARKS
OMAHA EPPLEY   PTSUNNY   69  48  47 NW17G29   30.11S
BLAIR          CLOUDY    68  48  49 NW16G26   30.12F
FREMONT        CLOUDY    69  49  48 NW20      30.14S
MILLARD        CLOUDY    69  48  46 NW17G26   30.12S
OFFUTT AFB     PTSUNNY   71  50  47 NW15G26   30.11S
PLATTSMOUTH    MOSUNNY   71  42  34 NW15G26   30.12S
WAHOO          MOCLDY    71  44  37 NW15G29   30.13F
$$



USA.gov is the U.S. government's official web portal to all federal, state and local government web resources and services.